Startseite
Über Mich
AHP4
Galerie
Sehschlangen
Tourenbuch
Bookmarks
Elektronik
Bewertung
Geschichten
[Tagesmessung] [Jahreswerte] [Information]

Messwerte vom 19.02.2022

Die letzten Messwerte von 23:58:47 Uhr:
KategorieMesswert
Temperatur [°C]3
Luftdruck [mBar]991
Sonneneinstrahlung0
Wind [km/h]0 aus Südost
Niederschlag [l/m²]0
rel.Luftfeucht.92.3%
CO2 [ppm]606

Diagramme
Messwerte vom 19.02.2022
Tagesaggregation
KategorieMinimumMaximumSchnittSumme
Temperatur [°C]385.1792
Luftdruck [mBar]978995989.8167
Sonneneinstrahlung23880.0313
Wind [km/h]0
rF [%]51.59669.17
Niederschlag [l/m²]0.515
CO2 [ppm]401606461.7
Einordnung alsKalter Tag

Messungen an benachbarten Tagen: Zur Jahresaggregation 2022
Tabelle aller Messwerte
UhrzeitTemperatur [°C]Luftdruck [mBar]SonneWind [km/h]RichtungRegen [l/m²]rF [%]CO2 [ppm]
00:01:45 7 979 0 0 O 0 57.6 542
00:04:47 7 978 0 0 SW 0 58.2 544
00:07:47 7 979 0 0 SW 0 58.2 553
00:10:46 7 978 0 0 SW 0 57.4 553
00:13:48 7 979 0 0 SW 0 57.3 550
00:16:46 7 979 0 0 SW 0 56.5 548
00:19:47 7 979 0 0 SW 0 55.8 557
00:22:46 7 979 0 0 W 0 56.9 559
00:25:48 7 979 0 0 O 0 57 562
00:28:47 7 978 0 0 SW 0 57.7 559
00:31:47 7 979 0 0 SO 0 58 550
00:34:47 7 979 0 0 SO 0 59.1 548
00:37:47 7 979 0 0 SO 0 59.1 547
00:40:46 7 980 0 0 S 0 59.2 545
00:43:45 7 979 0 0 0 58.8 550
00:46:47 7 979 0 0 NW 0 58.6 550
00:49:47 7 979 0 0 W 0 58.2 542
00:52:46 7 980 0 0 SW 0 58 533
00:55:48 7 980 0 0 S 0 58 533
00:58:46 7 980 0 0 SW 0 57.9 529
01:01:48 7 980 0 0 SO 0 56.9 539
01:04:47 7 979 0 0 W 0 56.9 540
01:07:46 7 980 0 0 S 0 56.7 536
01:10:46 7 980 0 0 0 55.2 534
01:13:47 7 980 0 0 SW 0 54.9 531
01:16:46 7 979 0 0 NW 0 54.5 531
01:19:45 7 980 0 0 S 0 53.1 527
01:22:44 7 980 0 0 N 0 52.7 527
01:25:48 7 980 0 0 SW 0 52.8 530
01:28:44 7 980 0 0 S 0 52.6 533
01:31:48 7 980 0 0 NW 0 52.1 524
01:34:46 7 980 0 0 SO 0 51.6 521
01:37:45 7 980 0 0 W 0 51.6 521
01:40:47 7 980 0 0 S 0 51.5 518
01:43:48 7 980 0 0 S 0 51.6 518
01:46:45 7 980 0 0 S 0 52.2 519
01:49:47 7 980 0 0 W 0 52.5 519
01:52:47 7 980 0 0 SW 0 53.2 527
01:55:49 7 980 0 0 SW 0 52.8 527
01:58:45 7 980 0 0 W 0 52.4 531
02:01:45 7 980 0 0 O 0 52.7 525
02:04:48 7 980 0 0 S 0 54.4 519
02:07:48 7 980 0 0 S 0 53.8 527
02:10:48 7 980 0 0 N 0 53 541
02:13:48 7 980 0 0 O 0 53.3 533
02:16:44 7 980 0 0 O 0 53.4 527
02:19:47 7 980 0 0 SW 0 53.3 518
02:22:47 7 980 0 0 SW 0 53.4 524
02:25:45 7 980 0 0 S 0 53 521
02:28:47 7 980 0 0 S 0 52.6 520
02:31:47 7 980 0 0 NW 0 53.1 519
02:34:44 6 980 0 0 N 0 52.5 524
02:37:45 6 980 0 0 SW 0 53.3 515
02:40:46 7 980 0 0 W 0 52.6 515
02:43:46 6 980 0 0 SW 0 53 512
02:46:49 6 980 0 0 N 0 53.3 503
02:49:46 6 980 0 0 SW 0 53.6 503
02:52:44 6 980 0 0 W 0 54.3 506
02:55:46 6 980 0 0 S 0 54.9 521
02:58:45 6 980 0 0 S 0 54.9 529
03:01:46 6 980 0 0 O 0 54.8 530
03:04:48 6 980 0 0 SW 0 55 525
03:07:47 6 980 0 0 W 0 55.6 518
03:10:46 6 980 0 0 S 0 55.9 515
03:13:47 6 980 0 0 W 0 56 510
03:16:48 6 980 0 0 NO 0 56.1 512
03:19:47 6 980 0 0 S 0 56.1 509
03:22:46 6 980 0 0 N 0 56 507
03:25:48 6 980 0 0 SW 0 56.2 512
03:28:47 6 981 0 0 SW 0 56.5 507
03:31:47 6 980 0 0 SW 0 56.4 509
03:34:46 6 980 0 0 SW 0 56.2 512
03:37:48 6 980 0 0 NW 0 56.4 518
03:40:47 6 980 0 0 SW 0 56.8 526
03:43:45 6 980 0 0 S 0 56.7 518
03:46:45 6 981 0 0 NW 0 56.5 515
03:49:48 6 981 0 0 SO 0 57.1 516
03:52:45 6 980 0 0 SO 0 57.1 515
03:55:52 6 981 0 0 SW 0 56.8 510
03:58:47 6 980 0 0 S 0 57.2 512
04:01:46 6 981 0 0 NO 0 57.5 516
04:04:47 6 980 0 0 NW 0 57.7 512
04:07:47 6 980 0 0 SO 0 58 515
04:10:45 6 981 0 0 W 0 58.3 515
04:13:45 6 981 0 0 S 0 58.5 516
04:16:45 6 981 0 0 NW 0 58.6 498
04:19:49 6 981 0 0 SW 0 59.4 507
04:22:45 6 981 0 0 S 0 60.2 506
04:25:49 6 982 0 0 NW 0 61.1 504
04:28:46 6 983 0 0 NO 0 61.7 495
04:31:45 6 982 0 0 S 0 62.1 504
04:34:47 5 983 0 0 NW 0 62.8 500
04:37:48 5 983 0 0 SW 0 64.2 501
04:40:46 5 984 0 0 S 0 65.7 488
04:43:44 5 983 0 0 S 0 66.8 497
04:46:35 4 983 0 0 N 0 55.1 492
04:49:48 5 984 0 0 SO 0 74.8 483
04:52:46 4 984 0 0 W 0 75 480
04:55:50 4 983 0 0 SW 0 73.6 490
04:58:47 5 983 0 0 SO 0 72.9 495
05:01:46 5 983 0 0 N 0 72.7 495
05:04:48 5 984 0 0 SO 0 73.8 494
05:07:45 4 984 0 0 N 0 74.1 495
05:10:47 4 984 0 0 SW 0 74.2 498
05:13:45 4 984 0 0 S 0 74 501
05:16:48 5 984 0 0 SO 0 74.6 497
05:19:46 4 984 0 0 S 0 75.2 504
05:22:46 4 984 0 0 SW 0 75.7 503
05:25:46 4 984 0 0 SO 0 76.2 498
05:28:46 4 984 0 0 SW 0 77.3 503
05:31:47 4 984 0 0 NO 0 78.5 506
05:34:46 4 984 0 0 S 0 79.5 509
05:37:46 4 984 0 0 N 0 80.1 512
05:40:47 4 984 0 0 SO 0 80.9 516
05:43:49 4 984 0 0 SO 0 82.1 507
05:46:48 4 984 0 0 S 0 82.2 504
05:49:46 4 984 0 0 S 0 81.5 501
05:52:48 4 984 0 0 SW 0 81.3 495
05:55:49 4 984 0 0 SO 0 80.8 497
05:58:46 4 985 0 0 N 0 80.4 503
06:01:47 4 985 0 0 SO 0 81.5 499
06:04:46 4 985 0 0 W 0 82.2 495
06:07:46 4 985 0 0 S 0 82.7 495
06:10:50 4 985 0 0 NW 0 83.2 498
06:13:47 4 986 0 0 SO 0 83.5 501
06:16:46 4 985 0 0 NW 0 83.6 506
06:19:47 4 986 0 0 SW 0 84 510
06:22:45 4 985 0 0 SO 0 84.2 513
06:25:49 4 985 0 0 S 0 84.2 510
06:28:48 4 986 0 0 SW 0 84.4 507
06:31:44 4 986 0 0 W 0 84.5 515
06:34:49 4 986 0 0 SW 0 84.7 518
06:37:47 4 986 0 0 O 0 85.1 517
06:40:47 4 986 0 0 S 0 85 512
06:43:47 4 987 0 0 SO 0 85 510
06:46:44 4 987 0 0 W 0 85.1 507
06:49:50 4 987 0 0 SW 0 85.3 510
06:52:46 4 986 0 0 NW 0 85.1 507
06:55:46 4 987 0 0 S 0 85.1 503
06:58:46 4 987 0 0 SO 0 85.1 512
07:01:48 4 987 0 0 NW 0 84.8 522
07:04:48 4 987 0 0 SW 0 83.9 524
07:07:48 4 987 4 0 NW 0 83.7 513
07:10:47 4 987 7 0 SW 0 83.4 503
07:13:47 4 987 11 0 NO 0 83.5 501
07:16:45 4 987 17 0 N 0 83.5 503
07:19:45 4 987 25 0 S 0 83.5 512
07:22:50 4 987 37 0 NW 0 83.9 518
07:25:44 4 987 47 0 S 0 84.6 519
07:28:46 4 987 53 0 S 0 85.2 519
07:31:47 4 987 63 0 S 0 86.5 510
07:34:45 3 987 71 0 W 0 87.4 507
07:37:48 3 987 78 0 W 0 88.6 504
07:40:47 3 988 87 0 SW 0 89.9 500
07:43:48 3 988 95 0 S 0 90.2 500
07:46:46 3 988 100 0 S 0 90.9 501
07:49:47 3 988 102 0 W 0 91.6 521
07:52:45 3 988 131 0 S 0 92.1 541
07:55:47 3 987 116 0 S 0 92.8 550
07:58:49 3 989 109 0 O 0 93.3 551
08:01:49 3 988 129 0 SW 0 94.2 558
08:04:49 3 988 132 0 W 0 94.9 574
08:07:49 3 988 136 0 NW 0 95.3 565
08:10:46 3 988 156 0 W 0 95.8 559
08:13:51 3 988 158 0 SW 0 96 559
08:16:50 3 989 156 0 SW 0 96 564
08:19:50 3 988 157 0 SO 0 95.8 562
08:22:47 3 988 151 0 W 0.2575 95.1 560
08:25:47 3 989 147 0 S 0 94.1 560
08:28:48 3 989 154 0 W 0 93.8 554
08:31:49 3 989 159 0 W 0 93.7 542
08:34:47 3 989 170 0 S 0 93.5 539
08:37:48 3 990 175 0 W 0 93.5 538
08:40:48 3 990 163 0 SW 0 93.5 536
08:43:50 3 989 158 0 SW 0 93.7 527
08:46:48 3 989 166 0 SW 0 93.7 516
08:49:47 3 989 170 0 W 0 93.4 516
08:52:48 3 990 159 0 SW 0 93 516
08:55:47 3 991 169 0 SW 0 92.5 512
08:58:46 3 991 172 0 S 0 91.3 515
09:01:48 4 991 166 0 W 0 89.2 504
09:04:50 4 990 160 0 SW 0 87.9 495
09:07:47 4 991 159 0 NW 0 87.1 492
09:10:46 4 991 164 0 S 0 86 489
09:13:47 4 990 165 0 SW 0 85.1 486
09:16:48 4 990 176 0 NW 0 82.9 486
09:19:48 4 991 187 0 O 0 79.5 486
09:22:50 4 991 188 0 SO 0 77.2 480
09:25:45 4 991 175 0 W 0 77.3 477
09:28:49 4 991 182 0 NW 0 78.4 474
09:31:47 4 991 188 0 W 0 77.9 466
09:34:46 4 991 181 0 NO 0 76.1 451
09:37:49 5 991 195 0 SW 0 77 448
09:40:48 5 991 184 0 SO 0 76.8 454
09:43:48 5 991 187 0 SW 0 76 463
09:46:47 5 991 190 0 S 0 75.2 466
09:49:47 5 991 199 0 SW 0 75.5 457
09:52:48 5 991 201 0 SO 0 75.7 444
09:55:45 5 991 200 0 O 0 74.4 439
09:58:46 5 991 190 0 W 0 73.5 437
10:01:45 5 991 190 0 W 0 72.5 436
10:04:46 5 991 196 0 W 0 73.5 432
10:07:47 5 991 190 0 NW 0 73.3 431
10:10:49 5 991 183 0 NW 0 73 433
10:13:46 5 991 183 0 SW 0 73 433
10:16:48 5 991 184 0 SW 0 73.1 433
10:19:47 5 992 196 0 O 0 73.1 422
10:22:48 5 991 192 0 NO 0 72.9 407
10:25:44 5 992 186 0 S 0 73.4 410
10:28:48 5 992 185 0 W 0 73.2 413
10:31:46 5 991 187 0 S 0 73.8 422
10:34:47 5 992 206 0 NW 0 73.1 413
10:37:45 5 992 197 0 SO 0 73.5 407
10:40:48 5 992 195 0 W 0 73.3 409
10:43:46 5 992 191 0 N 0 72.9 412
10:46:47 5 992 197 0 NO 0 73.7 410
10:49:48 5 992 192 0 SO 0 73.5 405
10:52:46 5 992 190 0 W 0 72.5 407
10:55:49 5 992 180 0 NW 0 72.9 407
10:58:49 5 992 176 0 SO 0 72.4 407
11:01:48 5 992 188 0 SO 0 72.6 405
11:04:48 5 992 191 0 W 0 72.9 404
11:07:48 5 993 190 0 NW 0 72.2 407
11:10:47 5 993 190 0 NW 0 71.4 406
11:13:47 5 993 194 0 NW 0 71.2 405
11:16:47 5 994 198 0 S 0 70.4 405
11:19:47 5 994 209 0 NO 0 70.9 405
11:22:46 5 994 219 0 W 0 71.1 405
11:25:47 5 994 218 0 SW 0 70.3 407
11:28:48 6 994 217 0 S 0 70.2 404
11:31:45 6 993 219 0 0 69.6 407
11:34:47 6 995 221 0 W 0 68.6 407
11:37:47 6 994 212 0 S 0 67.8 407
11:40:48 6 994 209 0 S 0 67.5 407
11:43:47 6 994 210 0 0 66.7 404
11:46:49 6 994 215 0 NW 0 67.4 407
11:49:49 6 994 215 0 W 0 68 407
11:52:47 6 994 209 0 SW 0 68.1 404
11:55:49 6 994 201 0 SO 0 69.1 407
11:58:49 6 994 201 0 NW 0 68.6 404
12:01:49 6 994 216 0 NW 0 69.5 406
12:04:49 6 994 217 0 SW 0 69.8 404
12:07:48 6 994 214 0 S 0 69.7 405
12:10:47 6 994 209 0 N 0 69.8 407
12:13:48 6 995 217 0 SW 0 69.7 404
12:16:47 6 994 223 0 SW 0 69.6 404
12:19:50 6 994 223 0 SW 0 69.4 404
12:22:51 6 995 225 0 SW 0 68.3 407
12:25:49 7 994 223 0 NW 0 68 404
12:28:48 8 995 221 0 W 0 65.4 407
12:31:48 8 995 221 0 SW 0 62.9 407
12:34:47 7 995 216 0 N 0 62.2 407
12:37:46 7 995 218 0 S 0 63.5 406
12:40:49 7 995 221 0 SW 0 64.3 405
12:43:49 7 995 200 0 SW 0 65.6 407
12:46:50 6 995 185 0 NW 0 65.9 404
12:49:52 6 995 195 0 NW 0 66.5 407
12:52:47 6 995 202 0 SW 0 67.6 404
12:55:49 6 995 217 0 SW 0 69.2 407
12:58:48 6 995 205 0 SO 0 69.6 407
13:01:47 6 995 200 0 W 0 69.6 404
13:04:48 6 995 189 0 SW 0 69.1 407
13:07:48 6 995 184 0 NW 0 68.9 407
13:10:49 6 995 192 0 S 0 69 407
13:13:46 6 995 191 0 S 0 68.4 404
13:16:50 6 995 206 0 SO 0 68.5 405
13:19:49 6 995 195 0 S 0 68.1 407
13:22:48 6 995 202 0 O 0 68.3 407
13:25:49 6 995 190 0 NW 0 68.5 407
13:28:51 6 995 199 0 NO 0 67.6 404
13:31:48 6 994 195 0 SW 0 67.1 405
13:34:46 6 995 205 0 S 0 67.4 403
13:37:49 6 995 207 0 S 0 65.8 407
13:40:46 6 995 213 0 SW 0 65.4 404
13:43:51 6 995 209 0 SW 0 65.4 404
13:46:47 6 995 206 0 SO 0 65.1 404
13:49:49 6 995 201 0 SO 0 64 405
13:52:46 6 995 202 0 S 0 64.3 404
13:55:47 6 995 182 0 W 0 63.9 407
13:58:47 6 995 193 0 SW 0 63 404
14:01:47 6 995 189 0 W 0 64.6 404
14:04:47 6 995 193 0 NO 0 65 404
14:07:49 6 995 188 0 SW 0 65.2 407
14:10:47 6 995 192 0 SO 0 66 404
14:13:46 6 995 189 0 S 0 65.1 404
14:16:48 6 995 183 0 NO 0 64.7 404
14:19:47 6 995 179 0 S 0 64.6 404
14:22:47 6 995 180 0 SO 0 64.8 404
14:25:48 6 995 186 0 O 0 65 406
14:28:48 6 995 191 0 SO 0 64.7 404
14:31:46 6 995 191 0 O 0 63.7 401
14:34:50 6 995 189 0 NW 0 62.7 405
14:37:48 6 995 198 0 S 0 62.8 407
14:40:47 6 995 191 0 N 0 62.5 404
14:43:48 6 995 185 0 SW 0 62.6 404
14:46:49 6 995 200 0 SW 0 63 407
14:49:48 6 995 193 0 SO 0 63.4 404
14:52:46 6 995 189 0 NW 0 63.3 407
14:55:49 6 995 183 0 S 0 62.6 407
14:58:47 6 995 181 0 S 0 62.6 407
15:01:48 6 995 198 0 S 0 62.5 407
15:04:48 6 995 205 0 SW 0 62.7 407
15:07:48 6 995 194 0 SW 0 62.9 406
15:10:47 6 995 186 0 SW 0 62 407
15:13:47 6 995 193 0 S 0 61.6 404
15:16:48 6 995 196 0 SO 0 62.1 404
15:19:48 6 995 192 0 NW 0 62.2 404
15:22:47 6 995 207 0 W 0 62.2 404
15:25:47 6 995 217 0 SO 0 62.8 406
15:28:47 6 995 220 0 SO 0 62 407
15:31:49 6 995 226 0 SO 0 60.4 404
15:34:48 6 995 227 0 NW 0 59.8 407
15:37:48 7 995 238 0 NO 0 60.6 401
15:40:46 7 995 227 0 S 0 60.2 407
15:43:47 7 995 227 0 S 0 59.9 404
15:46:46 7 995 234 0 O 0 59.8 404
15:49:47 7 995 225 0 SO 0 60.1 405
15:52:47 7 995 220 0 S 0 59.1 406
15:55:46 7 995 228 0 0 59.3 407
15:58:48 7 995 230 0 SW 0 59 404
16:01:48 7 995 228 0 SO 0 58.6 404
16:04:46 7 995 217 0 W 0 58.7 406
16:07:47 7 995 215 0 NW 0 58.2 404
16:10:47 7 995 214 0 NW 0 57.9 404
16:13:47 6 995 212 0 NW 0 57.6 404
16:16:46 6 995 219 0 SW 0 57.7 404
16:19:45 6 995 214 0 O 0 57.5 407
16:22:47 6 995 214 0 S 0 58.4 407
16:25:48 6 995 220 0 N 0 59.3 406
16:28:48 6 995 211 0 W 0 59.2 404
16:31:46 6 995 201 0 SW 0 59.4 405
16:34:46 6 995 200 0 W 0 60 408
16:37:49 6 995 204 0 NW 0 60.1 405
16:40:50 6 995 203 0 SW 0 60.6 407
16:43:47 6 995 201 0 S 0 61.2 407
16:46:47 6 995 202 0 S 0 61.4 401
16:49:48 6 995 202 0 W 0 60.7 406
16:52:45 6 995 200 0 W 0 60.5 404
16:55:48 6 995 196 0 O 0 60.5 403
16:58:47 5 995 190 0 NO 0 60.5 404
17:01:46 5 995 184 0 S 0 60.7 407
17:04:48 5 995 181 0 S 0 60.2 406
17:07:48 5 995 175 0 SO 0 60.3 406
17:10:45 5 995 168 0 0 60.7 405
17:13:46 5 995 163 0 SO 0 61.3 404
17:16:45 5 995 155 0 S 0 61.6 406
17:19:46 5 995 145 0 N 0 62 404
17:22:49 5 995 135 0 SW 0 61.8 404
17:25:47 5 995 126 0 SW 0 62 404
17:28:48 5 995 117 0 SO 0 62.4 406
17:31:48 5 995 105 0 S 0 62.9 406
17:34:46 5 995 93 0 S 0 63 404
17:37:47 5 995 81 0 S 0 62.9 407
17:40:47 5 995 70 0 SW 0 62.6 407
17:43:46 5 995 59 0 SO 0 62.6 405
17:46:48 5 995 48 0 SO 0 62.9 406
17:49:47 5 995 37 0 SW 0 63.1 407
17:52:47 5 995 26 0 SO 0 62.9 406
17:55:45 5 995 18 0 SW 0 62.7 406
17:58:44 5 995 12 0 S 0 62.5 404
18:01:49 5 995 8 0 SW 0 63 407
18:04:44 5 995 5 0 S 0 63.1 403
18:07:46 5 995 3 0 S 0 63.3 407
18:10:46 5 995 0 0 O 0 63.7 406
18:13:47 4 995 0 0 W 0 63.9 407
18:16:45 4 995 0 0 SW 0 64.3 404
18:19:46 4 995 0 0 SW 0 65.2 407
18:22:45 4 995 0 0 SW 0 65.4 406
18:25:45 4 995 0 0 W 0 65.8 407
18:28:45 4 995 0 0 SO 0 65.9 404
18:31:46 4 995 0 0 S 0 66.3 404
18:34:45 4 995 0 0 S 0 66.8 406
18:37:46 4 995 0 0 S 0 67.3 407
18:40:48 4 995 0 0 S 0 67.4 404
18:43:46 4 995 0 0 O 0 67.5 406
18:46:47 4 995 0 0 SW 0 67.4 404
18:49:46 4 995 0 0 SW 0 67.3 404
18:52:47 4 995 0 0 NO 0 66.9 404
18:55:48 4 995 0 0 SO 0 66.6 407
18:58:45 4 995 0 0 SO 0 66.4 407
19:01:45 4 995 0 0 S 0 66.3 407
19:04:45 4 995 0 0 N 0 66.2 407
19:07:47 4 995 0 0 SO 0 66.1 404
19:10:48 4 995 0 0 SW 0 66 407
19:13:47 4 995 0 0 W 0 65.8 407
19:16:45 4 995 0 0 S 0 65.8 404
19:19:48 4 995 0 0 SO 0 65.7 407
19:22:44 4 995 0 0 S 0 65.6 407
19:25:46 4 995 0 0 SO 0 65.6 403
19:28:47 4 995 0 0 S 0 65.5 406
19:31:45 4 995 0 0 SO 0 65.1 403
19:34:45 4 995 0 0 SO 0 65.1 407
19:37:47 4 995 0 0 SO 0 64.8 404
19:40:45 4 995 0 0 SO 0 64.3 404
19:43:44 4 995 0 0 SO 0 63.6 406
19:46:46 5 995 0 0 SW 0 63.4 404
19:49:45 5 995 0 0 O 0 63 407
19:52:45 5 995 0 0 SW 0 62.9 406
19:55:46 5 995 0 0 SW 0 62.3 407
19:58:49 5 995 0 0 SO 0 62.3 404
20:01:48 5 995 0 0 S 0 62.3 407
20:04:47 5 995 0 0 SO 0 62.2 407
20:07:44 5 995 0 0 S 0 61.7 404
20:10:52 5 995 0 0 SO 0 61.6 404
20:13:43 5 994 0 0 S 0 61.3 403
20:16:45 5 994 0 0 W 0 60.5 407
20:19:48 5 995 0 0 SW 0 60.6 407
20:22:48 5 994 0 0 SW 0 60.6 406
20:25:46 5 995 0 0 SO 0 60.8 404
20:28:46 5 995 0 0 S 0 61 404
20:31:48 5 994 0 0 NW 0 60.9 404
20:34:45 5 995 0 0 O 0 61.4 404
20:37:46 5 994 0 0 SO 0 60.9 404
20:40:45 5 994 0 0 S 0 60.6 407
20:43:47 5 994 0 0 SW 0 60.8 404
20:46:47 5 994 0 0 SO 0 60.8 407
20:49:48 5 995 0 0 SO 0 61.1 408
20:52:48 5 994 0 0 SW 0 61.2 407
20:55:45 5 994 0 0 S 0 61.1 407
20:58:43 5 994 0 0 S 0 61.1 404
21:01:45 5 994 0 0 W 0 61.9 407
21:04:48 6 994 0 0 SW 0 62.8 404
21:07:47 6 994 0 0 SO 0 64.1 407
21:10:46 6 995 0 0 S 0 65.1 407
21:13:44 6 995 0 0 S 0 65.7 403
21:16:45 6 994 0 0 SW 0 66.7 404
21:19:46 6 994 0 0 SO 0 67.7 407
21:22:45 5 994 0 0 S 0 68 406
21:25:47 5 994 0 0 SW 0 68.7 404
21:28:45 5 994 0 0 N 0 69.2 404
21:31:46 5 994 0 0 S 0 69.8 407
21:34:46 5 994 0 0 N 0 70.2 403
21:37:44 5 994 0 0 O 0 70.3 407
21:40:47 5 994 0 0 SW 0 70.5 407
21:43:46 5 994 0 0 SW 0 70.6 406
21:46:48 5 993 0 0 SO 0 70.9 407
21:49:44 5 994 0 0 SW 0 71.1 407
21:52:46 5 994 0 0 SO 0 71.8 407
21:55:45 5 994 0 0 N 0 72.7 404
21:58:45 5 994 0 0 S 0 73.2 402
22:01:48 5 994 0 0 SW 0 73.9 404
22:04:48 5 994 0 0 SW 0 75.3 407
22:07:47 5 993 0 0 SW 0 77.1 407
22:10:49 5 993 0 0 SW 0 80.2 401
22:13:47 4 993 0 0 S 0 80.5 407
22:16:48 4 994 0 0 SW 0 81.8 404
22:19:50 4 993 0 0 SW 0 82.7 407
22:22:48 4 993 0 0 SO 0 83 480
22:25:48 4 993 0 0 SO 0 83.8 487
22:28:45 4 992 0 0 S 0 83.6 492
22:31:49 4 993 0 0 S 0 83.7 495
22:34:48 4 993 0 0 SW 0 83.7 503
22:37:47 4 992 0 0 O 0 83.3 509
22:40:49 4 992 0 0 S 0 83.5 515
22:43:46 4 993 0 0 W 0 83.7 519
22:46:48 4 992 0 0 S 0 83.7 523
22:49:47 4 992 0 0 NW 0 83.8 516
22:52:46 4 992 0 0 SW 0 83.8 530
22:55:46 4 991 0 0 SW 0 84 534
22:58:47 4 992 0 0 S 0 84.6 549
23:01:47 4 992 0 0 SO 0 84.5 549
23:04:46 4 991 0 0 SO 0 84.5 549
23:07:44 4 991 0 0 S 0 84.5 550
23:10:48 4 991 0 0 S 0 84.8 555
23:13:48 4 991 0 0 NW 0 84.8 565
23:16:45 4 991 0 0 O 0 85.1 571
23:19:45 4 991 0 0 S 0 85.3 579
23:22:48 4 991 0 0 NW 0 85.8 579
23:25:46 4 991 0 0 SW 0 86.4 580
23:28:48 4 992 0 0 SO 0 86.9 583
23:31:48 4 991 0 0 SO 0 87.7 583
23:34:46 4 992 0 0 S 0 88.1 594
23:37:48 4 991 0 0 S 0 88.5 588
23:40:46 4 991 0 0 SO 0 89.2 591
23:43:46 3 991 0 0 S 0 89.9 592
23:46:47 3 991 0 0 S 0 90.6 594
23:49:48 3 991 0 0 SO 0 90.9 601
23:52:47 3 991 0 0 SW 0 91.6 597
23:55:46 3 991 0 0 SW 0.2575 91.9 603
23:58:47 3 991 0 0 SO 0 92.3 606

Letzte Änderung : 04-Jan-2022
Copyright Jens Köhler, Wolfsburg, Obere Dorfstraße 10d